Salt Lake City, UT

2:03 AM MDT on July 24, 2017 (GMT -0600)
Salt Lake City International

Weather History for KSLC - March, 2014

Change the Weather History Date:

Wednesday, March 5, 2014

  Actual Average Record
Temperature  
Mean Temperature 50 °F 41 °F  
Max Temperature 60 °F 50 °F 68 °F (1972)
Min Temperature 39 °F 31 °F 5 °F (1966)
Degree Days  
Heating Degree Days 15 24  
Month to date heating degree days 72 125  
Since 1 July heating degree days 4059 4381  
Cooling Degree Days 0 0  
Month to date cooling degree days 0 0  
Year to date cooling degree days 0 0  
Moisture  
Dew Point 32 °F    
Average Humidity 56    
Maximum Humidity 85    
Minimum Humidity 26    
Precipitation  
Precipitation 0.00 in 0.06 in 0.82 in (1908)
Month to date precipitation 0.21 0.26  
Year to date precipitation 2.98 2.76  
Snow  
Snow 0.00 in 0.20 in 9.50 in (1908)
Month to date snowfall 0.0 1.3  
Since 1 July snowfall 35.0 46.7  
Snow Depth 0.00 in    
Sea Level Pressure  
Sea Level Pressure 30.08 in    
Wind  
Wind Speed 10 mph (SSE)    
Max Wind Speed 21 mph    
Max Gust Speed 25 mph    
Visibility 10 miles    
Events      
T = Trace of Precipitation, MM = Missing Value Source: NWS Daily Summary

Daily Weather History Graph

Daily Weather History Graph

Search for Another Location

Airport or City:

Trip Planner

Search our weather history database for the weather conditions in past years. The results will help you decide how hot, cold, wet, or windy it might be!

Date:

Astronomy

Mar. 05, 2014 Rise Set
Actual Time 6:55 AM MST 6:23 PM MST
Civil Twilight 6:28 AM MST 6:51 PM MST
Nautical Twilight 5:56 AM MST 7:22 PM MST
Astronomical Twilight 5:24 AM MST 7:54 PM MST
Moon 9:21 AM MST (3/5) 11:38 PM MST (3/5)
Length of Visible Light 12h 22m
Length of Day
11h 28m
Waxing Crescent, 24% of the Moon is Illuminated
Mar 5
Waxing Crescent
Mar 8
First Quarter
Mar 16
Full
Mar 23
Last Quarter
Mar 30
New

Hourly Weather History & Observations

Time (MST) Temp. Windchill Dew Point Humidity Pressure Visibility Wind Dir Wind Speed Gust Speed Precip Events Conditions
12:53 AM 44.1 °F 39.0 °F 37.0 °F 76% 30.12 in 10.0 mi SSE 9.2 mph - N/A   Mostly Cloudy
1:53 AM 42.1 °F 37.1 °F 37.0 °F 82% 30.12 in 10.0 mi SSE 8.1 mph - N/A   Partly Cloudy
2:53 AM 41.0 °F 36.4 °F 36.0 °F 82% 30.12 in 10.0 mi SE 6.9 mph - N/A   Partly Cloudy
3:53 AM 41.0 °F 34.7 °F 36.0 °F 82% 30.10 in 10.0 mi SE 10.4 mph - N/A   Partly Cloudy
4:53 AM 41.0 °F 35.2 °F 36.0 °F 82% 30.11 in 10.0 mi SSE 9.2 mph - N/A   Clear
5:53 AM 39.9 °F 33.9 °F 36.0 °F 86% 30.14 in 10.0 mi SE 9.2 mph - N/A   Partly Cloudy
6:53 AM 39.0 °F 32.3 °F 36.0 °F 89% 30.15 in 10.0 mi SSE 10.4 mph - N/A   Scattered Clouds
7:53 AM 42.1 °F 36.1 °F 36.0 °F 79% 30.17 in 10.0 mi SE 10.4 mph - N/A   Scattered Clouds
8:53 AM 46.0 °F 39.9 °F 37.0 °F 71% 30.16 in 10.0 mi SE 13.8 mph - N/A   Scattered Clouds
9:53 AM 48.9 °F - 36.0 °F 61% 30.15 in 10.0 mi SSE 12.7 mph - N/A   Scattered Clouds
10:53 AM 53.1 °F - 33.1 °F 47% 30.14 in 10.0 mi South 16.1 mph - N/A   Scattered Clouds
11:53 AM 54.0 °F - 32.0 °F 43% 30.13 in 10.0 mi SSE 15.0 mph - N/A   Mostly Cloudy
12:53 PM 57.0 °F - 30.9 °F 37% 30.08 in 10.0 mi South 13.8 mph - N/A   Mostly Cloudy
1:53 PM 57.9 °F - 27.0 °F 31% 30.05 in 10.0 mi South 16.1 mph 24.2 mph N/A   Mostly Cloudy
2:53 PM 59.0 °F - 25.0 °F 27% 30.04 in 10.0 mi South 15.0 mph 20.7 mph N/A   Mostly Cloudy
3:53 PM 59.0 °F - 28.0 °F 31% 30.03 in 10.0 mi SSW 5.8 mph - N/A   Mostly Cloudy
4:53 PM 59.0 °F - 28.0 °F 31% 30.02 in 10.0 mi SSW 4.6 mph - N/A   Mostly Cloudy
5:53 PM 57.9 °F - 27.0 °F 31% 30.01 in 10.0 mi South 6.9 mph - N/A   Mostly Cloudy
6:53 PM 55.9 °F - 28.0 °F 34% 30.02 in 10.0 mi Calm Calm - N/A   Overcast
7:53 PM 55.9 °F - 28.0 °F 34% 30.02 in 10.0 mi SE 4.6 mph - N/A   Mostly Cloudy
8:53 PM 53.1 °F - 28.0 °F 38% 30.01 in 10.0 mi SE 6.9 mph - N/A   Mostly Cloudy
9:53 PM 53.1 °F - 26.1 °F 35% 30.01 in 10.0 mi SE 5.8 mph - N/A   Mostly Cloudy
10:53 PM 51.1 °F - 26.1 °F 38% 29.99 in 10.0 mi South 6.9 mph - N/A   Mostly Cloudy
11:53 PM 50.0 °F - 27.0 °F 41% 29.98 in 10.0 mi ESE 11.5 mph - N/A   Mostly Cloudy